Terminal Aerodrome Forecast
Issued by NWS Sterling, VA

Current Version | Previous Version | Text Only | Print | Product List | Glossary Off
Versions: 1 2 3 4 5 6 7 8 9 10 11 12 13 14 15 16 17 18 19 20 21 22 23

000
FTUS41 KLWX 041944 AAA
TAFMRB
TAF AMD
KMRB 041944Z 0420/0518 09006KT P6SM OVC025
      TEMPO 0420/0422 1SM TSRA BR OVC010CB
     FM050000 00000KT P6SM -SHRA OVC015
     FM050500 06004KT P6SM -SHRA OVC008
     FM051200 04005KT 2SM -SHRA OVC015=

USA.gov is the U.S. government's official web portal to all federal, state and local government web resources and services.